Flag Weather past 2 weeks in Győr, Hungary

Now
34 °F

Chilly.


Feels Like: 34 °F
Forecast: 36 / 39 °F
Wind: 2 mph from East

Location: Gyor

Current Time: Nov 28, 2014 at 12:16:41 PM

Latest Report: Nov 28, 2014 at 11:00 AM


Visibility: N/A

Pressure: 30.13 "Hg

Humidity: 96%

Dew point: 33 °F

Location of GyőrLocation

Historic Weather in Győr — Graph

°F

Győr temperature yesterday

Maximum temperature yesterday: 38 °F (at 12:00 PM)
Minimum temperature yesterday: 34 °F (at 11:00 PM)
Average temperature yesterday: 36 °F

Past Weeks' High & Low Weather Summary

 TemperatureHumidityPressure
High60 °F (Nov 14, 3:00 PM)98% (Nov 21, 8:00 AM)30.45 "Hg (Nov 21, 8:00 AM)
Low33 °F (Nov 26, 6:00 AM)66% (Nov 14, 3:00 PM)29.78 "Hg (Nov 18, 5:00 PM)
Average44 °F85%30.25 "Hg
* Reported Nov 13 11:00 AM — Nov 28 11:00 AM, Győr, Weather by CustomWeather, © 2014

Note: Actual official high and low records may vary slightly from our data, if they occured in-between our weather recording intervals... More about our weather records

Advertising

Győr weather history for previous 24 hours

 ConditionsComfort  
Time TempWeatherWind HumidityBarometerVisibility
11:00 AM
Nov 28
34 °FChilly.2 mph96%30.13 "HgN/A
10:00 AM33 °FChilly.2 mph95%30.12 "HgN/A
9:00 AM33 °FChilly.2 mph96%30.12 "HgN/A
8:00 AM33 °FChilly.2 mph96%30.11 "HgN/A
7:00 AM33 °FChilly.2 mph96%30.10 "HgN/A
6:00 AM33 °FChilly.3 mph95%30.09 "HgN/A
5:00 AM33 °FChilly.2 mph95%30.08 "HgN/A
4:00 AM33 °FChilly.2 mph95%30.09 "HgN/A
3:00 AM33 °FChilly.2 mph93%30.09 "HgN/A
2:00 AM33 °FChilly.2 mph95%30.09 "HgN/A
1:00 AM34 °FChilly.2 mph95%30.09 "HgN/A
12:00 AM34 °FChilly.2 mph93%30.10 "HgN/A
11:00 PM
Nov 27
34 °FChilly.3 mph91%30.11 "HgN/A
10:00 PM35 °FChilly.3 mph87%30.10 "HgN/A
9:00 PM35 °FChilly.3 mph83%30.10 "HgN/A
8:00 PM35 °FChilly.2 mph82%30.10 "HgN/A
7:00 PM35 °FChilly.3 mph83%30.11 "HgN/A
6:00 PM36 °FChilly.3 mph79%30.10 "HgN/A
5:00 PM36 °FChilly.3 mph79%30.10 "HgN/A
4:00 PM36 °FChilly.3 mph77%30.10 "HgN/A
3:00 PM36 °FChilly.3 mph76%30.10 "HgN/A
2:00 PM37 °FChilly.3 mph74%30.11 "HgN/A
1:00 PM37 °FChilly.5 mph71%30.13 "HgN/A
12:00 PM38 °FChilly.3 mph71%30.14 "HgN/A
Weather by CustomWeather, © 2014

See weather overviewHow to use our weather pages